DW8913 Weather Reports


time (UTC)temp
C
wind
direction
speed
KPH
gust
KPH
rain 1hr
cm
rain 24hr
cm
rain mn
cm
humidity
%
barometer
mb
20260831103103 22 325 0.0 0.0 0.00 1.70 1.70 93 1018.4
20260831101526 22 200 0.0 0.0 0.00 1.70 1.70 92 1018.2
20260831100108 22 200 0.0 0.0 0.00 1.70 1.70 92 1017.8
20260831094536 22 162 0.0 0.0 0.00 1.70 1.70 92 1017.7
20260831093008 22 162 0.0 0.0 0.00 1.70 1.70 92 1017.8
20260831091552 21 162 0.0 0.0 0.00 1.70 1.70 92 1017.6
20260831090014 22 162 0.0 0.0 0.03 1.70 1.70 91 1017.4
20260831084551 22 162 0.0 0.0 0.18 1.70 1.70 91 1017.5
20260831083035 22 164 0.0 0.0 0.33 1.70 1.70 92 1017.5
20260831081605 22 250 0.0 4.8 0.36 1.70 1.70 92 1017.5
20260831080031 22 238 0.0 3.2 0.33 1.68 1.68 91 1017.5
20260831074503 22 18 1.6 11.3 1.45 1.50 1.50 91 1017.8
20260831073054 22 202 1.6 8.0 1.37 1.37 1.37 91 1017.9
20260831071524 22 233 0.0 8.0 1.35 1.35 1.35 90 1017.9
20260831064535 23 222 0.0 3.2 0.00 0.00 0.00 87 1017.9
20260831063002 23 240 0.0 4.8 0.00 0.00 0.00 87 1018.1
20260831061550 23 267 0.0 3.2 0.00 0.00 0.00 86 1018.3
20260831060012 23 15 0.0 3.2 0.00 0.00 0.00 89 1018.2
20260831054551 23 72 0.0 0.0 0.00 0.00 0.00 88 1017.9
20260831053020 23 72 0.0 0.0 0.00 0.00 0.00 88 1018.1
20260831051602 23 72 0.0 1.6 0.00 0.00 0.00 88 1017.9
20260831050045 23 154 0.0 4.8 0.00 0.00 0.00 88 1017.8
20260831044504 23 77 0.0 3.2 0.00 0.00 0.00 89 1017.9
20260831043044 23 158 0.0 1.6 0.00 0.00 0.00 89 1018.1
20260831041516 24 134 0.0 0.0 0.00 0.00 0.00 89 1018.1
20260831040058 24 153 0.0 4.8 0.00 0.00 0.00 89 1018.1
20260831034520 24 215 0.0 9.7 0.00 0.00 0.00 88 1018.1
20260831033104 24 138 3.2 8.0 0.00 0.00 0.00 88 1018.1
20260831031536 24 102 0.0 8.0 0.00 0.00 0.00 88 1018.2
20260831030006 24 139 1.6 8.0 0.00 0.00 0.00 87 1018.3
20260831024608 24 165 0.0 11.3 0.00 0.00 0.00 87 1018.5
20260831023018 24 146 1.6 9.7 0.00 0.00 0.00 87 1018.6
20260831021602 25 83 1.6 6.4 0.00 0.00 0.00 86 1018.7
20260831020035 25 153 1.6 9.7 0.00 0.00 0.00 86 1018.6
20260831014611 25 154 3.2 9.7 0.00 0.00 0.00 85 1018.6
20260831013034 25 181 3.2 9.7 0.00 0.00 0.00 85 1018.8
20260831011515 25 78 3.2 16.1 0.00 0.00 0.00 85 1018.7
20260831010051 25 165 4.8 16.1 0.00 0.00 0.00 85 1018.6
20260831004519 25 164 8.0 19.3 0.00 0.00 0.00 85 1018.5
20260831003104 25 62 3.2 17.7 0.00 0.00 0.00 84 1018.3
20260831001539 25 152 6.4 17.7 0.00 0.00 0.00 84 1018.4
20260831000114 25 163 1.6 16.1 0.00 0.00 0.00 84 1018.3
20260830234607 25 39 6.4 14.5 0.00 0.00 0.00 83 1018.2
20260830233021 25 91 8.0 22.5 0.00 0.00 0.00 82 1018.3
20260830231603 25 211 4.8 16.1 0.00 0.00 0.00 81 1018.3
20260830230034 25 127 3.2 16.1 0.00 0.00 0.00 81 1018.5
20260830224616 25 62 4.8 12.9 0.00 0.00 0.00 81 1018.4
20260830223040 26 154 3.2 12.9 0.00 0.00 0.00 80 1018.4
20260830221509 26 167 6.4 17.7 0.00 0.00 0.00 80 1018.4
20260830220044 26 152 4.8 14.5 0.00 0.00 0.00 80 1018.3
20260830214517 26 107 3.2 16.1 0.00 0.00 0.00 79 1018.3
20260830213110 26 22 4.8 11.3 0.00 0.00 0.00 79 1018.4
20260830211528 26 80 3.2 12.9 0.00 0.00 0.00 78 1018.2
20260830210108 26 167 3.2 12.9 0.00 0.00 0.00 77 1018.3
20260830204533 26 185 6.4 12.9 0.00 0.00 0.00 77 1018.4
20260830203002 26 63 3.2 12.9 0.00 0.00 0.00 76 1018.7
20260830201607 26 186 3.2 11.3 0.00 0.00 0.00 76 1018.8
20260830200015 27 193 3.2 14.5 0.00 0.00 0.00 75 1019.0
20260830194551 27 66 3.2 16.1 0.00 0.00 0.00 75 1019.0
20260830193019 27 68 4.8 12.9 0.00 0.00 0.00 74 1019.0
20260830191556 27 182 4.8 14.5 0.00 0.00 0.00 73 1019.2
20260830190029 27 186 3.2 12.9 0.00 0.00 0.00 71 1019.4
20260830184602 27 160 3.2 14.5 0.00 0.00 0.00 71 1019.6
20260830183032 27 172 6.4 16.1 0.00 0.00 0.00 70 1019.9
20260830181612 27 245 4.8 12.9 0.00 0.00 0.00 70 1020.0
20260830180049 28 165 6.4 14.5 0.00 0.00 0.00 67 1020.2
20260830174515 28 71 3.2 12.9 0.00 0.00 0.00 67 1020.4
20260830173102 28 185 6.4 14.5 0.00 0.00 0.00 66 1020.5
20260830171526 29 153 3.2 8.0 0.00 0.00 0.00 64 1020.9
20260830170112 28 65 3.2 14.5 0.00 0.00 0.00 67 1021.0
20260830164539 28 141 4.8 12.9 0.00 0.00 0.00 67 1021.2
20260830163010 28 64 3.2 14.5 0.00 0.00 0.00 68 1021.1
20260830161552 27 51 4.8 12.9 0.00 0.00 0.00 68 1020.9
20260830160022 27 106 3.2 12.9 0.00 0.00 0.00 68 1021.2
20260830154603 27 200 4.8 12.9 0.00 0.00 0.00 66 1021.2
20260830153046 27 200 4.8 12.9 0.00 0.00 0.00 65 1021.3
20260830151527 27 76 4.8 8.0 0.00 0.00 0.00 66 1021.3
20260830144538 27 167 4.8 12.9 0.00 0.00 0.00 64 1021.4
20260830143109 27 166 1.6 11.3 0.00 0.00 0.00 66 1021.6
20260830141538 27 22 1.6 11.3 0.00 0.00 0.00 66 1021.6
20260830140001 27 151 3.2 9.7 0.00 0.00 0.00 65 1021.8
20260830134539 27 62 1.6 9.7 0.00 0.00 0.00 66 1021.9
20260830133109 27 168 1.6 9.7 0.00 0.00 0.00 65 1022.1
20260830131544 26 176 1.6 8.0 0.00 0.00 0.00 66 1022.2
20260830130009 26 160 1.6 8.0 0.00 0.00 0.00 67 1022.3
20260830124601 25 42 3.2 9.7 0.00 0.00 0.00 69 1022.4
20260830123025 24 151 1.6 6.4 0.00 0.00 0.00 73 1022.6
20260830121608 22 139 1.6 6.4 0.00 0.00 0.00 78 1022.7
20260830120019 21 217 0.0 4.8 0.00 0.00 0.00 90 1022.6
20260830114603 20 163 0.0 0.0 0.00 0.00 0.00 94 1022.5
20260830113032 20 163 0.0 0.0 0.00 0.00 0.00 94 1022.7
20260830111502 19 163 0.0 0.0 0.00 0.00 0.00 94 1022.6
20260830110040 18 163 0.0 0.0 0.00 0.00 0.00 93 1022.6
20260830104514 18 163 0.0 0.0 0.00 0.00 0.00 94 1022.4